Date String (YYYY-MM-DD hh:mm:ss) UTC,Instrument flags,Ambient pressure (hPa),Sample flow (lpm),Bypass flow (lpm),Sample temperature (°C),Ambient temperature (°C),ASC tube jacket temperature (°C),LED temperature (°C),Box temperature (°C),Sample RH (%),Span deviation,Mass concentration (μg/m³),Mass concentration (μg/m³),Mass concentration (μg/m³)
DateTimeUTC,F1_M11,P_M11,Q1_M11,Q2_M11,T1_M11,T2_M11,T3_M11,T4_M11,T5_M11,U1_M11,ZSPAN_M11,X0_M11,X2_M11,X1_M11
2022-04-03 17:00:00,,0826.1,5.01,0.00,25.8,25.2,00.0,34.6,27.7,11.3,0000.0,0016.65,0004.27,0002.47
2022-04-03 17:01:00,,0826.1,5.01,0.00,25.8,25.2,00.0,34.7,27.7,11.3,0000.0,0016.38,0004.21,0002.47
2022-04-03 17:02:00,,0826.2,5.00,0.00,25.8,25.2,00.0,34.7,27.7,11.5,0000.0,0017.06,0004.22,0002.49
2022-04-03 17:03:00,,0826.2,5.01,0.00,25.8,25.2,00.0,34.7,27.7,11.4,0000.0,0017.22,0004.29,0002.50
2022-04-03 17:04:00,,0826.1,4.98,0.00,25.8,25.2,00.0,34.7,27.7,11.5,0000.0,0016.79,0004.32,0002.52
2022-04-03 17:05:00,,0826.1,5.00,0.00,25.8,25.1,00.0,34.7,27.7,11.6,0000.0,0016.17,0004.38,0002.53
2022-04-03 17:06:00,,0826.1,5.00,0.00,25.8,25.1,00.0,34.7,27.7,11.4,0000.0,0016.25,0004.38,0002.54
2022-04-03 17:07:00,,0826.2,5.01,0.00,25.8,25.2,00.0,34.7,27.7,11.3,0000.0,0016.94,0004.47,0002.55
2022-04-03 17:08:00,,0826.1,5.00,0.00,25.9,25.2,00.0,34.7,27.7,11.4,0000.0,0017.68,0004.43,0002.53
2022-04-03 17:09:00,,0826.0,5.00,0.00,25.9,25.2,00.0,34.7,27.7,11.4,0000.0,0017.48,0004.40,0002.53
2022-04-03 17:10:00,,0826.0,5.00,0.00,25.9,25.2,00.0,34.7,27.8,11.4,0000.0,0016.86,0004.42,0002.53
2022-04-03 17:11:00,,0826.1,5.00,0.00,25.9,25.2,00.0,34.8,27.8,11.5,0000.0,0016.51,0004.38,0002.52
2022-04-03 17:12:00,,0826.1,5.00,0.00,25.9,25.2,00.0,34.8,27.8,11.6,0000.0,0016.80,0004.41,0002.52
2022-04-03 17:13:00,,0826.1,4.99,0.00,26.0,25.3,00.0,34.8,27.8,11.6,0000.0,0016.82,0004.45,0002.52
2022-04-03 17:14:00,,0826.1,5.01,0.00,26.0,25.3,00.0,34.8,27.8,11.7,0000.0,0017.20,0004.48,0002.52
2022-04-03 17:15:00,,0826.1,5.01,0.00,26.0,25.3,00.0,34.8,27.8,11.6,0000.0,0018.06,0004.48,0002.53
2022-04-03 17:16:00,,0826.0,5.00,0.00,26.0,25.2,00.0,34.8,27.8,11.4,0000.0,0018.39,0004.47,0002.55
2022-04-03 17:17:00,,0826.0,5.00,0.00,25.9,25.2,00.0,34.8,27.8,11.4,0000.0,0018.87,0004.49,0002.56
2022-04-03 17:18:00,,0826.1,5.00,0.00,25.9,25.1,00.0,34.8,27.7,11.7,0000.0,0018.43,0004.49,0002.57
2022-04-03 17:19:00,,0826.1,5.00,0.00,25.9,25.2,00.0,34.8,27.8,11.5,0000.0,0017.76,0004.54,0002.59
2022-04-03 17:20:00,,0826.0,5.00,0.00,25.9,25.1,00.0,34.8,27.7,11.3,0000.0,0016.95,0004.52,0002.61
2022-04-03 17:21:00,,0826.0,5.00,0.00,25.9,25.1,00.0,34.8,27.8,11.5,0000.0,0016.58,0004.46,0002.60
2022-04-03 17:22:00,,0826.0,5.01,0.00,25.9,25.1,00.0,34.8,27.8,11.5,0000.0,0016.29,0004.44,0002.62
2022-04-03 17:23:00,,0826.0,5.00,0.00,25.9,25.1,00.0,34.8,27.8,11.5,0000.0,0016.65,0004.45,0002.64
2022-04-03 17:24:00,,0826.0,4.99,0.00,25.9,25.1,00.0,34.8,27.7,11.5,0000.0,0016.41,0004.40,0002.63
2022-04-03 17:25:00,,0826.0,5.00,0.00,25.9,25.2,00.0,34.8,27.7,11.6,0000.0,0015.86,0004.35,0002.63
2022-04-03 17:26:00,,0826.0,5.00,0.00,25.9,25.2,00.0,34.8,27.7,11.6,0000.0,0016.39,0004.35,0002.63
2022-04-03 17:27:00,,0826.0,5.00,0.00,25.9,25.2,00.0,34.8,27.7,11.5,0000.0,0016.60,0004.43,0002.64
2022-04-03 17:28:00,,0826.0,5.00,0.00,25.9,25.2,00.0,34.8,27.7,11.6,0000.0,0015.87,0004.38,0002.64
2022-04-03 17:29:00,,0826.0,5.00,0.00,25.9,25.2,00.0,34.8,27.8,11.6,0000.0,0016.02,0004.33,0002.63
2022-04-03 17:30:00,,0826.0,5.00,0.00,25.9,25.2,00.0,34.8,27.8,11.5,0000.0,0016.38,0004.30,0002.63
2022-04-03 17:31:00,,0825.9,5.01,0.00,25.9,25.3,00.0,34.8,27.8,11.5,0000.0,0017.32,0004.36,0002.64
2022-04-03 17:32:00,,0825.9,5.00,0.00,26.0,25.3,00.0,34.9,27.8,11.7,0000.0,0016.76,0004.38,0002.64
2022-04-03 17:33:00,,0825.9,4.99,0.00,26.0,25.3,00.0,34.9,27.8,11.9,0000.0,0016.23,0004.40,0002.64
2022-04-03 17:34:00,,0825.9,5.00,0.00,26.0,25.3,00.0,34.9,27.8,11.7,0000.0,0015.63,0004.41,0002.62
2022-04-03 17:35:00,,0825.9,5.00,0.00,26.0,25.3,00.0,34.9,27.8,11.7,0000.0,0015.09,0004.44,0002.65
2022-04-03 17:36:00,,0825.9,5.00,0.00,26.0,25.2,00.0,34.9,27.7,11.8,0000.0,0015.80,0004.48,0002.66
2022-04-03 17:37:00,,0825.9,5.01,0.00,25.9,25.2,00.0,34.9,27.7,11.8,0000.0,0015.46,0004.50,0002.67
2022-04-03 17:38:00,,0826.0,5.00,0.00,25.9,25.2,00.0,34.9,27.7,11.9,0000.0,0015.48,0004.44,0002.66
2022-04-03 17:39:00,,0826.0,5.00,0.00,25.9,25.2,00.0,34.9,27.7,11.5,0000.0,0016.39,0004.47,0002.66
2022-04-03 17:40:00,,0826.0,5.00,0.00,25.9,25.2,00.0,34.9,27.7,11.6,0000.0,0016.97,0004.52,0002.66
2022-04-03 17:41:00,,0826.0,5.00,0.00,25.9,25.2,00.0,34.9,27.7,11.7,0000.0,0016.93,0004.52,0002.68
2022-04-03 17:42:00,,0825.9,5.00,0.00,25.9,25.1,00.0,34.9,27.7,11.5,0000.0,0016.95,0004.54,0002.69
2022-04-03 17:43:00,,0825.9,4.99,0.00,25.9,25.1,00.0,34.9,27.7,11.6,0000.0,0018.12,0004.65,0002.72
2022-04-03 17:44:00,,0825.9,5.00,0.00,25.9,25.1,00.0,34.9,27.7,11.9,0000.0,0018.61,0004.74,0002.74
2022-04-03 17:45:00,,0825.9,5.00,0.00,25.9,25.2,00.0,34.9,27.8,11.7,0000.0,0018.82,0004.76,0002.76
2022-04-03 17:46:00,,0825.9,4.99,0.00,25.9,25.2,00.0,34.9,27.8,11.7,0000.0,0019.52,0004.83,0002.78
2022-04-03 17:47:00,,0825.9,4.99,0.00,25.9,25.2,00.0,34.9,27.8,11.6,0000.0,0019.17,0004.86,0002.81
2022-04-03 17:48:00,,0825.8,5.01,0.00,26.0,25.2,00.0,34.9,27.9,11.6,0000.0,0019.08,0004.88,0002.82
2022-04-03 17:49:00,,0825.9,5.00,0.00,26.0,25.3,00.0,34.9,27.9,11.7,0000.0,0018.07,0004.87,0002.84
2022-04-03 17:50:00,,0825.8,5.00,0.00,26.0,25.3,00.0,34.9,27.9,11.8,0000.0,0016.85,0004.87,0002.85
2022-04-03 17:51:00,,0825.8,5.00,0.00,26.0,25.4,00.0,34.9,27.9,11.8,0000.0,0016.41,0004.83,0002.84
2022-04-03 17:52:00,,0825.8,4.99,0.00,26.0,25.4,00.0,34.9,27.9,11.5,0000.0,0016.99,0004.85,0002.85
2022-04-03 17:53:00,,0825.7,5.00,0.00,26.1,25.4,00.0,34.9,27.9,11.6,0000.0,0017.11,0004.85,0002.86
2022-04-03 17:54:00,,0825.7,5.00,0.00,26.0,25.4,00.0,34.9,27.9,11.5,0000.0,0015.63,0004.81,0002.88
2022-04-03 17:55:00,,0825.6,5.00,0.00,26.0,25.3,00.0,34.9,27.9,11.6,0000.0,0015.61,0004.78,0002.91
2022-04-03 17:56:00,,0825.6,4.99,0.00,26.0,25.3,00.0,35.0,27.9,11.6,0000.0,0016.08,0004.76,0002.95
2022-04-03 17:57:00,,0825.6,5.00,0.00,26.0,25.3,00.0,34.9,27.9,11.6,0000.0,0015.34,0004.78,0002.97
2022-04-03 17:58:00,,0825.6,5.00,0.00,26.0,25.3,00.0,35.0,27.9,11.7,0000.0,0015.12,0004.75,0002.98
2022-04-03 17:59:00,,0825.5,5.01,0.00,26.0,25.3,00.0,35.0,27.9,11.6,0000.0,0014.67,0004.79,0003.00
